Location: Peebles
(55.6412°N, 3.1714°W)
Time: 19:01:15
(UTC+01:00)

Envisat - Pass Details

Date: 26 February 2024
Orbit: 762 x 764 km, 98.3° (Epoch: 20 April)

Event Time Altitude Azimuth Distance (km) Brightness Sun altitude
Rises 02:49:09 0° 21° (NNE) 3,246 7.1 -35.5°
Reaches altitude 10° 02:51:48 10° 33° (NNE) 2,314 6.2 -35.2°
Enters shadow 02:55:49 28° 85° (E) 1,426 4.7 -34.8°
